Wind_Speed
3 3 4 4 4 5 5 6 6 7 7 8 8 9 10 10 10 10 9 9 8 8 8 7 7 7 7 6 6 5 5 5 5 4 4 4 4 3 3 2 1 1 1
4 4 5 5 6 6 7 7 8 9 9 10 10 10 11 12 12 11 11 10 10 9 9 9 9 8 8 7 7 7 6 6 5 5 5 4 4 4 3 3 2 1 1
5 5 6 6 7 8 8 9 10 10 11 11 12 12 12 13 13 13 12 12 12 11 11 10 10 10 9 8 7 7 7 6 6 6 6 5 5 5 4 3 3 2 2
7 7 8 8 8 9 10 10 11 12 12 13 13 13 14 14 14 14 14 13 13 13 12 12 12 11 10 9 9 8 8 7 7 7 7 6 6 5 5 5 4 3 3
9 9 10 9 9 10 11 12 13 13 13 14 14 15 15 15 15 15 15 15 14 14 14 13 13 12 11 11 10 9 9 8 8 8 7 8 7 6 6 6 6 5 4
9 9 10 10 10 11 12 13 14 14 15 15 15 16 16 16 16 17 17 16 16 15 15 15 14 13 13 12 11 10 10 10 9 9 9 9 8 8 8 8 7 7 6
10 10 11 11 12 13 14 14 15 15 16 16 17 17 17 18 17 17 18 18 17 17 16 16 15 15 14 13 12 12 11 11 11 11 10 10 10 10 9 9 8 8 8
10 11 13 13 14 14 15 16 16 17 17 18 18 18 19 19 18 19 19 19 19 18 18 17 16 16 15 14 14 13 13 12 12 12 12 11 11 11 11 10 9 9 8
11 12 13 14 15 16 16 17 17 18 18 19 20 19 19 19 19 20 20 20 20 20 19 18 18 17 16 16 15 15 14 14 14 13 13 13 13 12 11 11 11 10 10
12 13 13 14 15 17 17 18 19 19 20 21 21 20 20 20 21 21 21 21 21 21 21 20 19 18 18 17 17 16 16 15 14 14 15 15 14 13 13 12 12 12 11
13 14 15 15 16 17 17 18 18 19 20 21 21 20 20 21 21 22 22 22 21 21 21 20 20 20 19 18 18 17 17 16 15 15 15 15 16 15 14 14 13 13 13
14 15 16 17 17 17 17 18 18 19 20 20 20 21 21 21 22 23 23 22 22 22 22 21 20 20 19 19 19 18 18 17 17 17 16 17 17 16 16 16 16 15 15
16 16 17 17 17 17 18 18 17 18 19 20 21 21 21 22 22 23 23 24 23 23 23 22 22 21 20 20 19 19 19 19 18 17 17 17 17 16 17 16 17 16 16
17 17 18 17 18 17 17 18 18 19 20 20 21 22 22 23 23 23 23 24 24 24 24 24 23 22 21 21 20 20 20 20 19 18 18 18 18 18 18 17 17 17 17
18 17 18 18 18 17 18 19 19 20 21 20 21 21 21 22 23 22 23 23 23 23 24 24 24 23 22 22 22 21 21 21 20 19 19 19 19 20 19 19 19 18 17
19 18 18 18 19 18 19 19 19 20 20 20 20 21 22 22 22 22 23 23 23 22 22 23 23 23 23 23 23 23 23 22 21 21 21 20 20 21 20 20 20 19 18
20 19 19 19 19 19 19 20 20 20 21 20 19 20 21 21 22 23 23 23 23 22 21 21 22 22 23 23 24 24 23 23 22 22 22 21 21 21 21 21 21 22 21
20 20 20 18 18 19 20 20 20 21 21 21 21 21 21 21 22 23 23 24 24 23 23 23 23 23 24 24 24 24 24 24 23 23 23 22 22 22 22 22 22 23 23
19 19 19 19 19 20 20 21 21 22 22 23 22 22 22 22 22 23 23 24 24 24 24 24 24 24 24 24 24 24 25 26 25 24 24 24 23 23 23 23 23 23 24
18 19 19 20 19 20 21 22 22 24 24 24 24 24 24 23 23 23 24 24 25 25 24 24 25 25 25 25 26 26 26 26 26 25 25 25 24 24 23 23 23 23 23
19 19 20 20 21 21 22 22 23 23 24 24 23 23 23 24 24 25 25 24 25 26 26 26 26 26 26 27 27 27 27 27 27 25 25 25 25 25 25 24 24 24 24
19 20 21 20 21 22 22 23 24 24 24 23 24 24 24 24 25 26 26 25 26 27 28 28 28 28 28 28 28 27 27 27 27 26 26 26 25 25 25 25 25 25 25
21 21 21 21 21 22 23 23 24 24 24 24 24 24 24 25 26 27 27 27 27 28 29 29 29 29 29 29 29 28 27 27 27 27 27 27 26 26 26 26 25 25 25
21 21 21 21 22 23 24 24 25 24 25 25 24 24 25 26 27 28 28 28 28 28 28 28 28 29 29 29 29 29 29 29 28 27 27 27 27 26 26 26 26 26 26
21 21 20 21 23 24 25 25 25 26 26 26 25 26 26 27 27 27 27 27 27 27 27 27 28 29 29 29 30 30 30 29 29 28 27 27 27 26 26 26 26 25 25
21 21 23 23 23 24 25 26 26 27 27 26 27 27 27 27 26 26 26 26 27 27 27 27 28 28 28 29 29 30 30 29 29 29 28 27 27 27 27 26 26 26 25
Wind_Direction
327 322 312 298 292 287 283 279 277 279 281 285 289 291 291 289 288 286 286 287 287 285 284 286 285 284 285 281 277 276 277 276 271 268 269 265 265 269 277 289 306 318 336
303 304 302 293 285 282 279 276 276 276 278 280 281 285 286 287 286 285 284 283 283 282 281 280 279 279 281 280 275 274 274 278 276 270 270 269 270 269 274 286 298 301 297
296 292 290 290 285 281 278 275 275 276 276 276 279 280 282 282 281 281 282 281 280 280 279 279 278 277 276 276 275 275 275 274 277 272 271 273 274 275 276 282 287 283 275
297 294 291 286 283 281 278 274 273 274 274 274 275 278 279 278 276 275 276 277 278 278 277 277 277 274 274 276 277 277 274 274 275 275 276 275 273 273 274 274 269 272 268
291 293 291 286 283 282 279 278 277 276 275 275 274 275 277 277 274 272 272 273 273 274 274 274 273 271 272 275 277 275 272 272 272 274 274 272 270 267 267 264 257 260 263
289 291 287 283 282 284 283 281 279 277 275 274 273 273 275 275 272 271 270 270 271 271 271 270 269 268 269 272 272 271 271 270 270 272 273 272 269 264 264 259 255 256 258
287 284 283 281 280 282 282 282 281 278 275 273 272 273 274 274 272 271 271 270 270 269 269 269 267 267 267 268 268 268 270 270 270 270 269 268 267 263 261 257 258 258 256
282 284 285 283 281 282 282 281 281 277 274 273 272 272 272 272 272 271 271 270 268 267 267 266 265 265 265 265 266 267 268 269 271 271 270 266 264 262 260 259 261 260 256
280 284 283 282 283 282 283 282 281 278 274 272 271 272 271 269 271 271 269 269 269 268 266 265 263 264 264 264 264 266 269 269 270 272 272 268 265 261 258 259 260 262 259
282 285 286 283 285 286 285 283 280 278 277 275 273 271 272 271 270 269 269 268 268 268 266 264 262 262 263 264 264 266 268 270 272 273 272 268 265 263 260 260 260 261 263
282 286 287 288 289 290 287 287 285 281 280 278 275 273 272 271 269 269 268 267 266 265 265 263 262 261 262 263 264 265 268 270 272 274 273 269 265 261 262 260 259 262 263
280 283 286 289 290 290 289 291 287 285 282 277 275 275 273 271 270 268 268 266 265 264 264 262 262 261 262 262 263 263 264 268 271 271 272 271 266 260 263 262 259 260 263
280 283 285 286 289 291 290 289 288 289 284 280 277 275 274 271 271 271 270 269 268 266 263 262 260 260 261 261 261 263 265 265 267 269 270 269 267 262 261 262 263 261 262
279 283 287 289 289 288 287 287 289 290 287 285 283 278 276 274 274 274 272 271 270 268 264 261 262 261 260 260 261 263 265 264 265 267 268 268 265 263 263 261 263 262 260
282 282 285 287 288 286 289 289 288 289 289 289 285 281 281 279 278 278 275 272 271 268 266 263 263 261 261 261 263 264 264 264 264 267 266 265 266 265 264 263 264 264 261
280 279 282 284 285 285 287 288 289 291 291 289 287 284 281 280 279 276 275 277 273 270 268 265 263 261 262 262 264 265 264 264 264 266 266 263 261 263 265 262 262 262 262
282 281 280 283 284 285 288 289 290 290 290 289 287 287 284 282 281 278 277 276 273 271 270 266 265 264 262 263 264 264 263 263 263 264 264 263 263 263 263 262 261 261 262
285 284 283 285 286 288 292 294 294 292 291 290 290 289 287 285 283 280 279 277 276 274 271 269 269 267 264 263 263 261 261 261 263 264 265 265 265 265 264 264 263 262 262
285 288 284 285 288 291 292 292 292 292 291 290 289 288 287 285 284 282 281 278 275 273 271 270 269 268 265 264 263 263 261 261 262 263 264 265 265 266 266 266 265 263 263
283 286 285 286 289 292 292 292 292 292 290 289 288 286 284 284 284 283 283 280 275 274 273 272 271 269 267 265 263 262 262 262 262 261 263 264 265 265 266 266 265 264 263
287 287 287 288 288 290 291 291 293 293 293 291 288 287 286 285 285 285 284 280 278 276 275 272 271 269 267 266 265 263 263 263 262 262 263 264 264 264 264 264 264 261 261
286 285 286 288 289 290 291 290 291 292 292 291 290 289 289 287 286 286 284 280 280 279 276 274 272 270 269 267 265 263 263 263 262 262 263 264 264 263 262 263 262 261 262
286 282 282 286 287 289 290 290 292 292 292 290 288 288 288 288 286 285 283 281 280 279 277 275 273 271 270 268 264 262 261 261 261 261 262 263 264 263 262 262 262 262 262
288 283 284 285 286 289 290 291 291 291 292 290 288 288 288 288 286 285 283 282 280 279 277 276 273 272 270 268 265 262 260 259 258 260 262 262 263 262 261 261 262 262 262
290 290 289 289 287 288 290 290 289 290 291 291 290 289 288 288 287 285 284 282 281 279 279 278 276 273 270 267 265 262 260 257 257 258 259 260 261 261 261 262 263 262 262
294 292 289 289 288 289 290 289 289 290 291 291 291 291 291 290 289 286 285 284 282 280 280 280 277 273 270 267 265 263 260 258 258 258 259 259 259 260 262 263 264 262 262
Height
5922 5921 5921 5921 5920 5920 5920 5920 5919 5919 5919 5919 5918 5917 5917 5916 5915 5914 5914 5913 5912 5911 5910 5910 5909 5908 5907 5906 5906 5905 5904 5904 5903 5902 5901 5900 5899 5899 5898 5897 5896 5896 5895
5921 5921 5920 5920 5920 5919 5919 5919 5919 5919 5918 5918 5917 5916 5916 5915 5914 5913 5913 5912 5911 5910 5909 5908 5908 5907 5906 5905 5905 5904 5903 5903 5902 5901 5901 5900 5899 5898 5897 5897 5896 5895 5895
5920 5920 5919 5919 5919 5919 5918 5918 5918 5917 5917 5916 5915 5915 5914 5913 5913 5912 5911 5910 5909 5909 5908 5907 5906 5905 5905 5904 5904 5903 5902 5901 5901 5900 5899 5899 5898 5897 5897 5896 5895 5895 5895
5919 5919 5918 5918 5918 5917 5917 5917 5916 5916 5915 5915 5914 5913 5913 5912 5911 5910 5910 5909 5908 5907 5906 5905 5905 5904 5903 5903 5902 5902 5901 5900 5899 5898 5898 5897 5897 5896 5896 5895 5895 5894 5894
5917 5917 5917 5917 5916 5916 5915 5915 5914 5914 5913 5913 5912 5911 5911 5910 5909 5908 5908 5907 5906 5905 5904 5903 5903 5902 5901 5901 5900 5900 5899 5898 5897 5896 5896 5896 5895 5895 5895 5894 5894 5893 5893
5916 5915 5915 5914 5914 5914 5913 5913 5912 5912 5911 5910 5910 5909 5908 5907 5907 5906 5905 5905 5904 5903 5902 5901 5901 5900 5899 5899 5898 5898 5897 5896 5896 5895 5895 5894 5894 5893 5893 5893 5893 5892 5892
5914 5913 5913 5912 5912 5911 5911 5910 5910 5909 5908 5907 5907 5906 5905 5905 5904 5903 5903 5902 5901 5901 5900 5899 5898 5898 5897 5897 5896 5896 5895 5895 5894 5893 5893 5893 5892 5892 5891 5891 5891 5891 5891
5912 5911 5910 5910 5909 5908 5908 5907 5907 5906 5905 5904 5903 5903 5902 5901 5901 5900 5900 5899 5899 5898 5897 5897 5896 5895 5895 5894 5894 5893 5893 5892 5892 5891 5891 5891 5890 5890 5889 5889 5889 5889 5889
5909 5909 5908 5907 5906 5906 5905 5904 5903 5902 5901 5900 5900 5899 5898 5898 5897 5897 5896 5896 5895 5895 5894 5893 5893 5892 5892 5891 5891 5890 5890 5889 5889 5889 5889 5888 5888 5888 5887 5887 5887 5887 5887
5906 5906 5905 5904 5904 5903 5902 5901 5899 5898 5897 5896 5895 5895 5895 5894 5893 5893 5892 5892 5891 5891 5890 5890 5889 5889 5888 5888 5887 5887 5887 5886 5886 5886 5886 5886 5886 5885 5885 5885 5885 5885 5885
5904 5903 5902 5901 5901 5899 5898 5896 5895 5894 5893 5892 5892 5891 5890 5890 5889 5888 5888 5887 5887 5886 5886 5885 5885 5885 5885 5884 5884 5884 5883 5883 5883 5883 5883 5883 5883 5883 5883 5882 5882 5882 5882
5901 5900 5899 5898 5897 5895 5894 5893 5891 5890 5889 5888 5887 5887 5886 5885 5885 5884 5883 5883 5882 5882 5882 5881 5881 5881 5881 5880 5880 5880 5880 5880 5880 5879 5879 5879 5879 5879 5879 5879 5879 5879 5879
5897 5896 5895 5894 5893 5892 5890 5889 5887 5886 5885 5884 5883 5882 5881 5881 5880 5880 5879 5878 5877 5877 5877 5877 5877 5876 5876 5876 5876 5876 5876 5876 5876 5875 5875 5875 5875 5875 5874 5875 5876 5876 5876
5893 5892 5891 5890 5889 5887 5886 5885 5883 5882 5881 5880 5878 5877 5877 5876 5876 5875 5874 5873 5873 5872 5872 5872 5872 5872 5872 5871 5872 5871 5871 5871 5871 5871 5871 5871 5871 5871 5871 5872 5872 5872 5872
5889 5888 5887 5887 5885 5884 5882 5881 5879 5878 5877 5875 5874 5873 5872 5871 5870 5870 5869 5868 5868 5868 5867 5867 5867 5867 5867 5867 5867 5867 5867 5867 5866 5866 5867 5867 5867 5867 5867 5868 5868 5868 5868
5884 5884 5883 5882 5881 5880 5878 5877 5875 5874 5872 5871 5869 5868 5867 5866 5865 5865 5864 5863 5863 5863 5862 5862 5862 5862 5862 5862 5862 5862 5862 5862 5862 5862 5862 5862 5862 5862 5862 5863 5863 5863 5863
5880 5879 5878 5878 5877 5875 5874 5872 5871 5869 5868 5866 5865 5863 5862 5861 5860 5859 5859 5858 5858 5857 5857 5857 5857 5857 5857 5857 5857 5857 5856 5856 5856 5856 5857 5857 5857 5857 5858 5858 5858 5858 5859
5876 5874 5873 5872 5872 5871 5869 5867 5866 5864 5863 5861 5860 5859 5857 5856 5855 5854 5853 5853 5852 5852 5852 5852 5852 5851 5851 5851 5851 5851 5851 5850 5850 5851 5851 5851 5851 5852 5852 5852 5852 5853 5853
5871 5869 5868 5867 5866 5865 5864 5862 5861 5859 5858 5856 5855 5853 5852 5850 5849 5848 5847 5847 5846 5846 5846 5846 5846 5845 5845 5845 5845 5845 5845 5845 5845 5845 5845 5845 5845 5845 5846 5846 5847 5847 5847
5866 5865 5863 5862 5861 5860 5859 5857 5856 5854 5852 5851 5849 5848 5846 5844 5843 5842 5841 5841 5840 5840 5839 5839 5839 5838 5838 5838 5838 5838 5838 5838 5838 5838 5839 5838 5839 5839 5840 5840 5840 5841 5841
5862 5861 5859 5858 5857 5855 5854 5852 5851 5849 5847 5845 5844 5842 5840 5839 5837 5836 5835 5834 5833 5832 5832 5831 5831 5831 5831 5831 5831 5831 5831 5831 5832 5832 5832 5832 5833 5833 5833 5834 5834 5835 5835
5858 5856 5855 5853 5852 5850 5849 5847 5845 5843 5841 5839 5838 5836 5834 5833 5831 5829 5828 5827 5826 5825 5824 5824 5824 5823 5823 5823 5823 5823 5823 5824 5824 5824 5825 5825 5826 5826 5827 5827 5828 5828 5829
5853 5851 5850 5848 5847 5845 5843 5841 5839 5837 5836 5834 5832 5830 5828 5826 5824 5823 5821 5820 5819 5818 5817 5816 5816 5815 5815 5814 5814 5815 5815 5816 5816 5817 5817 5818 5819 5820 5820 5820 5821 5822 5822
5848 5846 5845 5843 5842 5840 5838 5836 5834 5832 5830 5828 5826 5824 5821 5819 5817 5815 5814 5812 5811 5810 5809 5808 5807 5807 5806 5806 5805 5806 5807 5808 5808 5809 5810 5810 5811 5812 5812 5813 5814 5814 5815
5843 5841 5839 5838 5836 5834 5832 5830 5828 5826 5823 5821 5819 5816 5814 5812 5809 5807 5806 5804 5803 5801 5800 5799 5798 5798 5797 5797 5797 5796 5797 5798 5799 5801 5802 5803 5803 5804 5805 5806 5806 5807 5807
5837 5835 5833 5831 5830 5828 5826 5824 5821 5819 5816 5814 5812 5809 5806 5804 5802 5799 5798 5796 5794 5793 5792 5790 5789 5789 5788 5788 5788 5787 5788 5789 5790 5792 5793 5795 5795 5796 5797 5798 5798 5799 5800